GFSFLT1_850_temp_336.txt.gz
Temp
28 27 27 28 28 27 26 26 25 24 23 23 22 23 22 22 22 22 21 21 21 21 21 21 20 20 21 21 20 20 20 20 20
27 28 28 27 27 26 26 25 24 24 23 22 23 24 24 23 23 23 23 22 21 21 20 20 20 20 20 20 20 20 19 20 20
28 29 27 26 25 25 25 24 24 22 23 24 25 26 24 23 26 25 23 22 22 22 21 20 20 20 20 20 20 20 20 20 19
29 28 28 27 26 24 24 25 25 24 24 24 25 25 24 25 25 24 24 22 22 22 21 20 20 20 20 19 19 20 20 19 16
27 27 28 27 26 24 24 24 24 24 24 24 23 23 23 22 23 23 24 23 23 22 21 21 21 20 20 20 20 20 20 19 19
26 27 28 28 27 25 24 24 24 24 23 24 25 25 24 24 24 22 22 24 23 22 22 21 20 20 20 20 21 20 21 20 20
27 28 28 28 27 27 26 24 23 23 24 24 24 25 25 24 23 23 24 24 22 22 21 21 20 20 20 20 20 20 20 20 20
27 27 27 27 27 27 26 26 25 25 24 24 24 24 24 24 23 24 24 23 23 22 21 21 20 20 20 20 20 20 20 20 21
27 26 27 27 26 26 26 26 25 24 23 23 23 22 22 23 23 23 23 22 22 22 21 21 20 20 20 21 21 21 20 20 20
26 26 27 26 26 26 25 25 25 24 23 23 22 23 22 22 21 22 21 21 21 21 21 20 20 20 20 20 21 21 20 21 21
27 26 26 26 26 25 24 24 24 23 23 23 23 22 21 21 21 21 21 21 21 21 21 20 20 20 20 20 20 20 20 20 21
27 27 26 26 25 24 23 23 23 23 23 22 21 21 21 21 21 21 21 21 21 20 20 20 20 20 20 20 21 20 20 20 20
26 26 25 25 25 24 23 22 22 22 21 21 20 20 20 20 20 20 20 20 20 20 20 20 19 20 19 20 20 20 20 20 20
24 24 24 24 23 23 22 22 21 21 20 20 20 20 20 21 21 20 20 20 19 20 20 20 20 20 20 20 20 20 19 19 19
24 23 22 22 22 22 22 22 21 21 21 21 21 21 20 20 19 19 19 19 19 19 19 19 19 19 20 20 20 20 20 20 19
23 22 22 22 22 22 21 21 20 20 19 19 19 19 19 18 18 18 17 17 17 16 16 16 16 16 17 18 19 18 18 18 18
22 22 22 22 21 21 21 20 20 20 20 19 19 18 18 18 17 17 16 15 15 14 15 14 14 14 14 14 15 15 16 16 16
23 22 21 21 21 20 20 20 20 20 19 19 18 17 17 16 15 15 14 14 14 14 14 14 13 14 14 14 14 14 14 14 14
24 23 21 21 20 20 20 20 20 19 17 17 17 17 16 16 15 14 14 13 13 13 13 13 13 13 13 13 13 13 13 13 14
22 22 21 20 20 20 19 19 17 17 17 17 16 15 15 14 14 13 13 13 12 12 14 14 14 14 14 14 14 14 14 13 13

GFSFLT1_850_temp_339.txt.gz
Temp
28 27 26 27 28 28 27 26 26 25 25 25 24 24 23 23 22 22 23 24 23 22 22 22 21 21 20 20 20 20 20 20 20
29 29 26 27 26 27 27 26 26 26 25 25 25 25 24 23 23 22 21 22 22 22 22 22 21 21 21 20 20 20 20 20 19
28 28 28 27 27 26 25 24 24 25 25 25 27 27 24 23 22 22 22 21 22 22 22 22 21 21 20 20 20 20 19 19 19
28 27 26 26 26 25 24 24 24 24 25 25 26 26 25 23 23 23 21 22 22 22 22 22 21 21 21 21 20 20 20 20 19
28 28 27 27 26 25 24 24 24 24 24 24 24 24 24 23 22 22 22 22 22 22 22 22 21 21 21 20 20 20 20 20 20
27 29 28 27 26 26 25 25 25 25 24 24 23 23 22 22 23 24 23 22 22 22 23 22 22 21 21 20 20 20 20 20 20
26 28 28 27 26 25 25 25 24 24 23 23 23 22 23 23 23 23 23 23 22 23 23 22 22 21 21 20 20 20 20 20 20
25 26 28 28 27 26 25 24 23 23 23 23 23 24 24 24 24 24 24 24 24 23 22 22 22 22 21 21 20 21 20 20 20
25 25 28 28 27 26 25 24 24 23 23 23 23 23 23 23 23 23 23 23 23 22 22 22 22 21 21 20 20 21 20 20 20
25 26 28 28 27 26 25 24 23 23 23 23 23 22 22 22 22 22 22 22 22 22 22 22 22 21 21 21 21 21 20 19 20
26 26 28 27 27 26 25 24 23 23 23 23 23 22 21 21 21 21 21 21 21 21 21 21 21 21 20 21 20 20 20 20 20
28 29 28 26 26 25 24 24 24 23 23 23 22 22 21 21 21 21 21 21 20 20 20 20 20 20 20 20 20 20 20 20 20
25 26 27 26 25 24 24 23 23 22 22 21 21 21 20 20 20 20 21 21 21 21 21 20 20 20 20 20 20 19 19 19 19
27 27 26 25 24 24 23 23 23 22 22 21 21 21 21 21 21 20 20 20 19 19 19 19 19 19 19 20 20 19 19 19 19
26 26 25 24 24 24 24 23 22 21 20 21 21 21 21 21 20 19 18 18 18 18 18 17 17 17 18 18 18 18 18 18 18
25 25 25 24 24 23 23 22 21 20 20 20 20 20 20 19 19 19 18 18 18 17 16 16 15 14 14 14 14 15 16 16 16
25 25 24 24 24 23 22 21 20 20 20 20 20 20 20 19 18 17 17 16 16 15 14 13 13 13 13 13 13 13 13 14 13
25 25 25 24 23 21 21 20 20 20 19 19 19 19 18 18 17 16 16 15 15 14 14 13 12 13 12 12 13 13 13 13 13
24 24 23 22 22 21 20 20 19 19 18 18 18 17 17 16 16 15 14 14 14 14 14 14 13 13 13 13 14 14 15 14 14
23 23 22 21 20 20 19 18 18 18 17 17 17 16 15 15 14 13 13 12 11 11 12 13 14 14 15 15 15 15 14 15 15

GFSFLT1_850_temp_342.txt.gz
Temp
33 32 31 31 29 28 26 26 25 24 25 25 25 25 24 24 23 22 21 20 20 20 21 21 20 21 22 22 21 21 20 20 19
34 33 31 29 29 28 26 25 25 24 24 26 26 25 24 24 24 23 21 22 22 21 21 21 21 21 21 21 21 21 21 20 20
34 32 31 30 29 28 27 25 25 24 24 27 26 25 24 23 24 24 23 23 22 22 21 21 22 22 22 21 21 20 20 20 19
33 32 31 29 28 27 27 25 25 24 23 26 25 22 22 21 21 23 23 22 22 23 22 22 22 22 22 22 21 20 21 21 21
32 31 29 28 26 25 24 24 24 23 23 23 24 23 21 20 21 23 22 22 22 22 22 22 21 22 21 22 21 20 20 21 20
31 29 28 28 26 24 23 23 22 22 23 23 24 23 22 23 22 22 23 22 22 23 22 22 21 21 22 22 21 21 20 20 21
31 30 28 28 28 25 23 23 24 23 22 22 23 23 22 22 21 21 22 23 23 22 21 21 19 20 20 21 21 20 20 20 20
31 30 30 28 27 25 23 23 25 25 22 23 22 21 22 23 23 23 22 22 22 22 22 20 20 20 20 20 20 20 20 19 18
31 30 30 29 26 24 23 23 24 24 23 23 23 23 23 22 22 20 20 21 21 21 21 21 20 20 19 20 20 19 20 20 20
30 30 30 29 27 25 24 23 24 23 23 23 23 23 22 20 20 20 22 22 22 22 22 22 21 21 21 20 19 20 21 21 21
30 30 30 29 28 26 24 23 23 23 22 23 23 22 22 22 22 22 22 22 21 21 21 21 21 20 21 20 19 20 20 20 20
31 30 29 29 28 25 23 23 23 22 23 23 23 23 22 22 21 21 21 21 21 21 21 21 21 20 20 20 20 20 19 20 20
32 30 30 28 27 23 23 24 24 24 23 23 22 21 21 21 21 21 21 20 20 20 19 19 17 17 18 20 20 20 20 19 19
31 29 28 26 24 24 23 22 22 21 21 21 22 21 21 21 21 21 21 20 20 19 19 18 18 18 18 19 19 19 19 19 18
28 26 24 24 24 23 22 22 23 22 21 21 21 21 21 21 21 20 19 19 19 18 18 17 15 15 15 16 16 15 15 15 16
24 23 23 24 23 23 21 22 21 21 22 22 21 21 21 20 19 20 19 19 18 17 16 16 16 16 16 17 16 16 16 15 14
23 23 23 23 22 24 24 24 23 21 21 21 20 20 19 19 18 18 18 17 15 16 16 16 16 16 16 16 15 15 15 15 15
23 23 24 25 24 23 22 22 21 21 20 20 19 18 18 18 16 16 15 15 15 14 14 14 14 14 14 14 14 14 14 14 13
24 25 25 24 23 21 21 22 21 20 20 19 18 18 17 17 16 16 15 15 15 15 14 13 13 13 13 13 13 14 14 14 14
24 23 23 23 22 22 20 19 19 19 18 18 18 17 15 15 15 15 15 15 14 15 15 14 13 13 13 12 12 12 11 11 12

GFSFLT1_850_temp_345.txt.gz
Temp
35 35 34 34 32 31 30 29 28 26 25 23 24 23 24 23 23 21 21 21 21 22 22 23 22 22 21 20 20 19 19 19 20
36 35 35 34 34 32 30 29 28 27 26 24 24 22 22 23 23 23 22 22 21 21 21 21 22 21 21 21 20 19 19 19 19
36 35 34 33 33 32 30 29 28 27 26 25 24 24 22 22 23 23 23 22 21 21 22 21 22 22 22 21 20 20 20 19 19
36 35 34 33 33 32 30 29 29 28 26 25 24 23 24 23 22 21 23 21 20 22 22 21 22 23 22 20 20 19 20 21 21
35 34 33 32 31 30 30 29 28 27 26 25 25 23 23 23 22 22 22 20 20 21 20 21 23 21 20 20 20 20 20 20 19
34 33 32 32 30 28 27 27 26 26 25 25 26 24 23 22 22 22 21 22 22 21 21 20 20 20 20 21 20 21 20 20 20
34 32 31 32 31 29 26 25 24 24 24 25 27 26 25 24 24 24 23 22 21 21 21 20 21 21 20 21 21 20 21 21 20
34 33 32 32 31 27 25 24 23 23 24 24 24 24 23 23 22 22 22 22 21 22 22 20 20 20 21 21 21 20 20 20 20
34 33 32 31 30 27 25 24 23 23 23 23 22 21 21 21 23 23 22 21 21 20 20 20 20 20 20 20 20 21 21 21 20
34 33 32 31 29 28 27 25 24 23 23 22 23 24 23 22 21 21 20 20 20 20 20 20 20 20 19 19 19 20 20 21 20
34 33 32 31 30 28 27 26 25 24 23 24 24 22 21 21 20 20 20 21 20 21 21 21 21 20 19 19 19 18 19 20 20
35 33 32 31 31 29 27 26 24 23 22 23 21 21 20 20 21 21 21 21 22 22 21 21 21 20 20 20 19 18 21 20 20
36 35 32 32 31 28 26 25 24 23 23 22 21 20 22 22 21 21 21 21 21 21 21 20 18 19 19 19 19 19 18 19 19
35 35 33 32 30 27 26 25 24 23 23 22 21 20 19 21 21 21 20 21 20 20 20 19 19 17 17 17 17 17 17 17 16
35 35 32 31 28 26 25 25 24 23 22 21 21 21 21 21 21 20 19 20 20 19 19 17 17 17 17 18 18 18 17 17 16
32 32 30 29 27 26 25 24 24 23 21 21 20 20 19 18 18 19 20 19 18 17 17 18 18 18 18 18 18 18 17 17 16
28 27 26 27 26 25 23 23 22 21 21 21 21 21 21 20 20 19 18 17 17 17 17 17 17 17 17 17 17 17 17 16 15
26 25 25 24 24 22 20 20 20 19 19 18 18 19 20 20 19 18 18 17 17 17 17 16 15 15 15 15 15 15 15 15 14
24 24 23 23 21 20 19 19 21 22 22 21 20 19 18 18 18 18 18 18 17 17 17 16 16 15 14 14 14 13 13 13 12
22 22 21 21 21 20 20 20 20 20 19 20 18 18 18 16 17 17 17 17 17 17 17 16 16 15 15 14 14 13 12 12 12